Flag for Ireland Weather past 2 weeks in Dublin, Ireland

Now
30 °F

Passing clouds.


Feels Like: 19 °F
Forecast: 30 / 40 °F
Wind: 16 mph from West

Location: Dublin Airport

Current Time: Feb 1, 2015 at 8:53:04 AM

Latest Report: Feb 1, 2015 at 8:00 AM


Visibility: N/A

Pressure: 29.77 "Hg

Humidity: 93%

Dew point: 28 °F

Location of DublinLocation

Historic Weather in Dublin — Graph

°F

Dublin temperature yesterday

Maximum temperature yesterday: 41 °F (at 2:00 PM)
Minimum temperature yesterday: 32 °F (at 9:00 PM)
Average temperature yesterday: 36 °F

Past Weeks' High & Low Weather Summary

 TemperatureHumidityPressure
High52 °F (Jan 25, 2:00 PM)100% (Jan 17, 9:30 PM)30.42 "Hg (Jan 17, 9:30 PM)
Low21 °F (Jan 19, 8:00 AM)65% (Jan 18, 3:30 PM)28.80 "Hg (Jan 29, 10:30 PM)
Average38 °F88%29.82 "Hg
* Reported Jan 17 7:00 AM — Feb 1 7:30 AM, Dublin, Weather by CustomWeather, © 2014

Note: Actual official high and low records may vary slightly from our data, if they occured in-between our weather recording intervals... More about our weather records

Advertising

Dublin weather history for previous 24 hours

 ConditionsComfort  
Time TempWeatherWind HumidityBarometerVisibility
7:30 AM
Feb 1
30 °FPassing clouds.13 mph93%29.77 "HgN/A
7:00 AM30 °FClear.12 mph86%29.74 "Hg10 mi
6:30 AM32 °FClear.14 mph87%29.74 "Hg10 mi
6:00 AM30 °FClear.18 mph93%29.74 "Hg10 mi
5:30 AM32 °FClear.18 mph87%29.74 "Hg10 mi
5:00 AM30 °FClear.12 mph93%29.74 "Hg10 mi
4:30 AM32 °FClear.12 mph87%29.74 "Hg10 mi
4:00 AM32 °FClear.14 mph87%29.71 "Hg10 mi
3:30 AM32 °FClear.16 mph87%29.71 "Hg10 mi
3:00 AM32 °FClear.16 mph87%29.71 "Hg10 mi
2:30 AM32 °FClear.14 mph87%29.71 "Hg10 mi
2:00 AM32 °FClear.16 mph87%29.71 "Hg10 mi
1:30 AM32 °FClear.14 mph87%29.68 "Hg10 mi
1:00 AM34 °FClear.17 mph81%29.68 "Hg10 mi
12:30 AM32 °FClear.18 mph87%29.68 "Hg10 mi
12:00 AM32 °FClear.17 mph87%29.65 "Hg10 mi
11:30 PM
Jan 31
32 °FClear.16 mph87%29.65 "Hg10 mi
11:00 PM34 °FClear.16 mph81%29.65 "Hg10 mi
10:30 PM34 °FPassing clouds.10 mph81%29.65 "HgN/A
10:00 PM34 °FClear.15 mph87%29.65 "Hg10 mi
9:30 PM34 °FClear.17 mph87%29.65 "Hg10 mi
9:00 PM32 °FClear.16 mph93%29.65 "Hg10 mi
8:30 PM34 °FPassing clouds.18 mph87%29.62 "HgN/A
8:00 PM34 °FPassing clouds.14 mph87%29.62 "HgN/A
7:30 PM34 °FPassing clouds.16 mph87%29.62 "HgN/A
7:00 PM34 °FPassing clouds.20 mph87%29.62 "HgN/A
6:30 PM34 °FPassing clouds.18 mph81%29.59 "HgN/A
6:00 PM36 °FPassing clouds.21 mph75%29.59 "HgN/A
5:30 PM36 °FPassing clouds.23 mph75%29.56 "HgN/A
5:00 PM37 °FPassing clouds.22 mph70%29.56 "HgN/A
4:30 PM37 °FPassing clouds.22 mph70%29.53 "HgN/A
4:00 PM37 °FScattered showers. Passing clouds.24 mph75%29.53 "HgN/A
3:30 PM39 °FScattered showers. Passing clouds.29 mph70%29.50 "HgN/A
3:00 PM39 °FPassing clouds.25 mph70%29.50 "HgN/A
2:30 PM39 °FPassing clouds.25 mph75%29.47 "HgN/A
2:00 PM41 °FPassing clouds.24 mph66%29.45 "HgN/A
1:30 PM39 °FScattered clouds.26 mph70%29.45 "HgN/A
1:00 PM39 °FPassing clouds.28 mph70%29.45 "HgN/A
12:30 PM39 °FPassing clouds.26 mph75%29.42 "HgN/A
12:00 PM39 °FPassing clouds.26 mph70%29.42 "HgN/A
11:30 AM39 °FPassing clouds.25 mph75%29.39 "HgN/A
11:00 AM37 °FPassing clouds.25 mph81%29.39 "HgN/A
10:30 AM37 °FPassing clouds.25 mph81%29.36 "HgN/A
10:00 AM36 °FPassing clouds.25 mph87%29.36 "HgN/A
9:30 AM36 °FScattered clouds.25 mph87%29.33 "HgN/A
9:00 AM36 °FScattered clouds.23 mph81%29.30 "HgN/A
8:30 AM36 °FScattered clouds.21 mph81%29.27 "HgN/A
8:00 AM36 °FPassing clouds.21 mph87%29.27 "HgN/A
Weather by CustomWeather, © 2014

See weather overviewHow to use our weather pages